Time,TemperatureF,DewpointF,PressureIn,WindDirection,WindDirectionDegrees,WindSpeedMPH,WindSpeedGustMPH,Humidity,HourlyPrecipIn,Conditions,Clouds,dailyrainin,SoftwareType,DateUTC
2013-06-22 00:00:00,64.0,58.0,30.10,WSW,247,1.0,3.0,82,0.00,,,0.00,Rainwise IP-100,2013-06-22 04:00:00,
2013-06-22 00:01:00,63.0,57.5,30.10,WSW,247,2.0,3.0,82,0.00,,,0.00,Rainwise IP-100,2013-06-22 04:01:00,
2013-06-22 00:06:00,63.0,57.5,30.10,South,180,2.0,3.0,82,0.00,,,0.00,Rainwise IP-100,2013-06-22 04:06:00,
2013-06-22 00:11:00,63.0,57.5,30.10,South,180,2.0,3.0,83,0.00,,,0.00,Rainwise IP-100,2013-06-22 04:11:00,
2013-06-22 00:16:00,63.0,57.5,30.10,WSW,247,2.0,3.0,83,0.00,,,0.00,Rainwise IP-100,2013-06-22 04:16:00,
2013-06-22 00:21:00,63.0,57.5,30.10,SSW,202,2.0,3.0,83,0.00,,,0.00,Rainwise IP-100,2013-06-22 04:21:00,
2013-06-22 00:26:00,63.0,58.0,30.10,South,180,0.0,3.0,84,0.00,,,0.00,Rainwise IP-100,2013-06-22 04:26:00,
2013-06-22 00:31:00,63.0,58.0,30.10,South,180,2.0,3.0,84,0.00,,,0.00,Rainwise IP-100,2013-06-22 04:31:00,
2013-06-22 00:36:00,63.0,58.0,30.10,South,180,2.0,3.0,84,0.00,,,0.00,Rainwise IP-100,2013-06-22 04:36:00,
2013-06-22 00:41:00,63.0,58.0,30.10,South,180,0.0,4.0,84,0.00,,,0.00,Rainwise IP-100,2013-06-22 04:41:00,
2013-06-22 00:46:00,63.0,58.0,30.10,South,180,0.0,4.0,84,0.00,,,0.00,Rainwise IP-100,2013-06-22 04:46:00,
2013-06-22 00:51:00,63.0,58.0,30.10,South,180,1.0,3.0,84,0.00,,,0.00,Rainwise IP-100,2013-06-22 04:51:00,
2013-06-22 00:56:00,63.0,57.5,30.09,South,180,2.0,3.0,83,0.00,,,0.00,Rainwise IP-100,2013-06-22 04:56:00,
2013-06-22 01:01:00,63.0,58.0,30.09,SW,225,0.0,2.0,84,0.00,,,0.00,Rainwise IP-100,2013-06-22 05:01:00,
2013-06-22 01:06:00,63.0,58.0,30.09,SW,225,0.0,1.0,84,0.00,,,0.00,Rainwise IP-100,2013-06-22 05:06:00,
2013-06-22 01:11:00,63.0,57.5,30.10,SSW,202,0.0,0.0,83,0.00,,,0.00,Rainwise IP-100,2013-06-22 05:11:00,
2013-06-22 01:16:00,63.0,58.0,30.10,SSW,202,0.0,1.0,84,0.00,,,0.00,Rainwise IP-100,2013-06-22 05:16:00,
2013-06-22 01:21:00,63.0,58.0,30.09,SSW,202,0.0,0.0,85,0.00,,,0.00,Rainwise IP-100,2013-06-22 05:21:00,
2013-06-22 01:26:00,62.0,57.5,30.09,SSW,202,0.0,0.0,85,0.00,,,0.00,Rainwise IP-100,2013-06-22 05:26:00,
2013-06-22 01:30:00,62.0,57.5,30.09,SSW,202,1.0,2.0,85,0.00,,,0.00,Rainwise IP-100,2013-06-22 05:30:00,
2013-06-22 01:35:00,62.0,57.5,30.09,South,180,0.0,3.0,86,0.00,,,0.00,Rainwise IP-100,2013-06-22 05:35:00,
2013-06-22 01:40:00,62.0,57.5,30.09,South,180,0.0,3.0,86,0.00,,,0.00,Rainwise IP-100,2013-06-22 05:40:00,
2013-06-22 01:45:00,63.0,58.0,30.09,West,270,0.0,0.0,85,0.00,,,0.00,Rainwise IP-100,2013-06-22 05:45:00,
2013-06-22 01:50:00,62.0,57.5,30.09,WSW,247,0.0,0.0,85,0.00,,,0.00,Rainwise IP-100,2013-06-22 05:50:00,
2013-06-22 01:55:00,62.0,57.5,30.09,WSW,247,0.0,0.0,86,0.00,,,0.00,Rainwise IP-100,2013-06-22 05:55:00,
2013-06-22 02:00:00,62.0,57.5,30.09,SW,225,0.0,0.0,86,0.00,,,0.00,Rainwise IP-100,2013-06-22 06:00:00,
2013-06-22 02:05:00,62.0,57.5,30.09,SSW,202,0.0,3.0,86,0.00,,,0.00,Rainwise IP-100,2013-06-22 06:05:00,
2013-06-22 02:10:00,62.0,58.0,30.09,SSW,202,0.0,0.0,87,0.00,,,0.00,Rainwise IP-100,2013-06-22 06:10:00,
2013-06-22 02:15:00,62.0,58.0,30.09,SSW,202,0.0,2.0,87,0.00,,,0.00,Rainwise IP-100,2013-06-22 06:15:00,
2013-06-22 02:20:00,62.0,57.5,30.09,South,180,0.0,2.0,86,0.00,,,0.00,Rainwise IP-100,2013-06-22 06:20:00,
2013-06-22 02:25:00,62.0,58.0,30.09,South,180,0.0,0.0,87,0.00,,,0.00,Rainwise IP-100,2013-06-22 06:25:00,
2013-06-22 02:30:00,62.0,58.0,30.09,South,180,0.0,0.0,87,0.00,,,0.00,Rainwise IP-100,2013-06-22 06:30:00,
2013-06-22 02:35:00,61.0,57.0,30.09,South,180,0.0,0.0,87,0.00,,,0.00,Rainwise IP-100,2013-06-22 06:35:00,
2013-06-22 02:40:00,61.0,57.0,30.09,South,180,0.0,0.0,87,0.00,,,0.00,Rainwise IP-100,2013-06-22 06:40:00,
2013-06-22 02:45:00,61.0,57.0,30.09,South,180,0.0,0.0,87,0.00,,,0.00,Rainwise IP-100,2013-06-22 06:45:00,
2013-06-22 02:50:00,61.0,57.0,30.09,South,180,0.0,0.0,87,0.00,,,0.00,Rainwise IP-100,2013-06-22 06:50:00,
2013-06-22 02:55:00,61.0,57.5,30.09,South,180,1.0,2.0,89,0.00,,,0.00,Rainwise IP-100,2013-06-22 06:55:00,
2013-06-22 03:00:00,61.0,57.5,30.09,South,180,0.0,3.0,89,0.00,,,0.00,Rainwise IP-100,2013-06-22 07:00:00,
2013-06-22 03:05:00,61.0,58.0,30.09,South,180,0.0,0.0,90,0.00,,,0.00,Rainwise IP-100,2013-06-22 07:05:00,
2013-06-22 03:10:00,61.0,58.0,30.09,SSW,202,1.0,3.0,90,0.00,,,0.00,Rainwise IP-100,2013-06-22 07:10:00,
2013-06-22 03:15:00,61.0,58.0,30.09,SSW,202,2.0,3.0,90,0.00,,,0.00,Rainwise IP-100,2013-06-22 07:15:00,
2013-06-22 03:20:00,61.0,58.0,30.09,SSW,202,2.0,3.0,90,0.00,,,0.00,Rainwise IP-100,2013-06-22 07:20:00,
2013-06-22 03:25:00,62.0,59.0,30.10,SSW,202,0.0,2.0,90,0.00,,,0.00,Rainwise IP-100,2013-06-22 07:25:00,
2013-06-22 03:30:00,62.0,59.0,30.10,SSW,202,0.0,3.0,90,0.00,,,0.00,Rainwise IP-100,2013-06-22 07:30:00,
2013-06-22 03:35:00,62.0,59.5,30.10,SSW,202,2.0,3.0,91,0.00,,,0.00,Rainwise IP-100,2013-06-22 07:35:00,
2013-06-22 03:40:00,62.0,59.5,30.09,South,180,1.0,4.0,91,0.00,,,0.00,Rainwise IP-100,2013-06-22 07:40:00,
2013-06-22 03:45:00,62.0,59.5,30.10,South,180,1.0,3.0,91,0.00,,,0.00,Rainwise IP-100,2013-06-22 07:45:00,
2013-06-22 03:50:00,62.0,60.0,30.10,South,180,2.0,3.0,92,0.00,,,0.00,Rainwise IP-100,2013-06-22 07:50:00,
2013-06-22 03:55:00,62.0,60.0,30.09,South,180,2.0,4.0,92,0.00,,,0.00,Rainwise IP-100,2013-06-22 07:55:00,
2013-06-22 04:00:00,62.0,60.0,30.09,South,180,0.0,3.0,92,0.00,,,0.00,Rainwise IP-100,2013-06-22 08:00:00,
2013-06-22 04:05:00,62.0,59.5,30.09,South,180,1.0,3.0,91,0.00,,,0.00,Rainwise IP-100,2013-06-22 08:05:00,
2013-06-22 04:10:00,62.0,59.5,30.09,South,180,2.0,4.0,91,0.00,,,0.00,Rainwise IP-100,2013-06-22 08:10:00,
2013-06-22 04:15:00,62.0,59.5,30.09,South,180,2.0,4.0,91,0.00,,,0.00,Rainwise IP-100,2013-06-22 08:15:00,
2013-06-22 04:20:00,62.0,59.0,30.09,South,180,2.0,3.0,90,0.00,,,0.00,Rainwise IP-100,2013-06-22 08:20:00,
2013-06-22 04:25:00,61.0,58.0,30.09,South,180,3.0,3.0,90,0.00,,,0.00,Rainwise IP-100,2013-06-22 08:25:00,
2013-06-22 04:30:00,61.0,58.0,30.09,South,180,2.0,3.0,90,0.00,,,0.00,Rainwise IP-100,2013-06-22 08:30:00,
2013-06-22 04:32:00,61.0,58.0,30.09,South,180,0.0,2.0,90,0.00,,,0.00,Rainwise IP-100,2013-06-22 08:32:00,
2013-06-22 04:37:00,61.0,58.0,30.09,South,180,0.0,1.0,90,0.00,,,0.00,Rainwise IP-100,2013-06-22 08:37:00,
2013-06-22 04:42:00,61.0,58.0,30.09,South,180,1.0,2.0,91,0.00,,,0.00,Rainwise IP-100,2013-06-22 08:42:00,
2013-06-22 04:47:00,61.0,58.0,30.09,South,180,0.0,2.0,91,0.00,,,0.00,Rainwise IP-100,2013-06-22 08:47:00,
2013-06-22 04:52:00,61.0,58.0,30.09,South,180,0.0,2.0,91,0.00,,,0.00,Rainwise IP-100,2013-06-22 08:52:00,
2013-06-22 04:57:00,61.0,58.0,30.09,South,180,0.0,0.0,91,0.00,,,0.00,Rainwise IP-100,2013-06-22 08:57:00,
2013-06-22 05:02:00,61.0,59.0,30.09,South,180,0.0,0.0,92,0.00,,,0.00,Rainwise IP-100,2013-06-22 09:02:00,
2013-06-22 05:07:00,61.0,59.0,30.09,South,180,0.0,0.0,92,0.00,,,0.00,Rainwise IP-100,2013-06-22 09:07:00,
2013-06-22 05:12:00,60.0,57.5,30.09,South,180,0.0,0.0,92,0.00,,,0.00,Rainwise IP-100,2013-06-22 09:12:00,
2013-06-22 05:17:00,60.0,57.5,30.09,South,180,0.0,0.0,92,0.00,,,0.00,Rainwise IP-100,2013-06-22 09:17:00,
2013-06-22 05:22:00,60.0,57.5,30.09,South,180,0.0,0.0,92,0.00,,,0.00,Rainwise IP-100,2013-06-22 09:22:00,
2013-06-22 05:27:00,60.0,57.5,30.09,South,180,0.0,0.0,93,0.00,,,0.00,Rainwise IP-100,2013-06-22 09:27:00,
2013-06-22 05:32:00,60.0,57.5,30.09,South,180,0.0,0.0,93,0.00,,,0.00,Rainwise IP-100,2013-06-22 09:32:00,
2013-06-22 05:37:00,60.0,57.5,30.09,South,180,0.0,0.0,92,0.00,,,0.00,Rainwise IP-100,2013-06-22 09:37:00,
2013-06-22 05:42:00,60.0,58.0,30.09,South,180,0.0,0.0,94,0.00,,,0.00,Rainwise IP-100,2013-06-22 09:42:00,
2013-06-22 05:47:00,60.0,58.0,30.09,South,180,0.0,0.0,94,0.00,,,0.00,Rainwise IP-100,2013-06-22 09:47:00,
2013-06-22 05:52:00,60.0,58.0,30.09,South,180,0.0,0.0,94,0.00,,,0.00,Rainwise IP-100,2013-06-22 09:52:00,
2013-06-22 05:57:00,60.0,58.0,30.09,South,180,0.0,0.0,94,0.00,,,0.00,Rainwise IP-100,2013-06-22 09:57:00,
2013-06-22 06:02:00,60.0,58.0,30.10,South,180,0.0,0.0,94,0.00,,,0.00,Rainwise IP-100,2013-06-22 10:02:00,
2013-06-22 06:07:00,60.0,58.0,30.09,South,180,0.0,0.0,94,0.00,,,0.00,Rainwise IP-100,2013-06-22 10:07:00,
2013-06-22 06:12:00,60.0,58.0,30.09,South,180,0.0,0.0,94,0.00,,,0.00,Rainwise IP-100,2013-06-22 10:12:00,
2013-06-22 06:17:00,60.0,58.0,30.09,South,180,0.0,0.0,95,0.00,,,0.00,Rainwise IP-100,2013-06-22 10:17:00,
2013-06-22 06:22:00,60.0,58.0,30.09,South,180,0.0,2.0,94,0.00,,,0.00,Rainwise IP-100,2013-06-22 10:22:00,
2013-06-22 06:27:00,60.0,58.0,30.09,South,180,3.0,3.0,94,0.00,,,0.00,Rainwise IP-100,2013-06-22 10:27:00,
2013-06-22 06:32:00,60.0,58.0,30.09,South,180,1.0,3.0,95,0.00,,,0.00,Rainwise IP-100,2013-06-22 10:32:00,
2013-06-22 06:37:00,61.0,59.5,30.09,SSW,202,2.0,4.0,95,0.00,,,0.00,Rainwise IP-100,2013-06-22 10:37:00,
2013-06-22 06:42:00,61.0,59.5,30.09,SW,225,1.0,3.0,94,0.00,,,0.00,Rainwise IP-100,2013-06-22 10:42:00,
2013-06-22 06:47:00,62.0,60.5,30.09,SSW,202,0.0,3.0,94,0.00,,,0.00,Rainwise IP-100,2013-06-22 10:47:00,
2013-06-22 06:52:00,62.0,60.5,30.09,WSW,247,0.0,3.0,94,0.00,,,0.00,Rainwise IP-100,2013-06-22 10:52:00,
2013-06-22 06:57:00,62.0,60.5,30.09,SSW,202,1.0,3.0,94,0.00,,,0.00,Rainwise IP-100,2013-06-22 10:57:00,
2013-06-22 07:02:00,62.0,60.5,30.09,SSW,202,2.0,3.0,94,0.00,,,0.00,Rainwise IP-100,2013-06-22 11:02:00,
2013-06-22 07:07:00,63.0,61.5,30.09,WSW,247,0.0,5.0,94,0.00,,,0.00,Rainwise IP-100,2013-06-22 11:07:00,
2013-06-22 07:12:00,63.0,61.5,30.09,SW,225,1.0,2.0,94,0.00,,,0.00,Rainwise IP-100,2013-06-22 11:12:00,
2013-06-22 07:17:00,63.0,61.5,30.08,SSE,157,1.0,3.0,94,0.00,,,0.00,Rainwise IP-100,2013-06-22 11:17:00,
2013-06-22 07:22:00,63.0,61.0,30.08,SSW,202,2.0,6.0,93,0.00,,,0.00,Rainwise IP-100,2013-06-22 11:22:00,
2013-06-22 07:27:00,64.0,62.0,30.08,SSW,202,2.0,5.0,94,0.00,,,0.00,Rainwise IP-100,2013-06-22 11:27:00,
2013-06-22 07:32:00,64.0,62.0,30.08,SSW,202,2.0,4.0,93,0.00,,,0.00,Rainwise IP-100,2013-06-22 11:32:00,
2013-06-22 07:37:00,65.0,62.5,30.09,South,180,3.0,4.0,92,0.00,,,0.00,Rainwise IP-100,2013-06-22 11:37:00,
2013-06-22 07:42:00,65.0,62.0,30.09,South,180,0.0,5.0,90,0.00,,,0.00,Rainwise IP-100,2013-06-22 11:42:00,
2013-06-22 07:47:00,66.0,62.5,30.09,South,180,0.0,5.0,89,0.00,,,0.00,Rainwise IP-100,2013-06-22 11:47:00,
2013-06-22 07:52:00,67.0,63.0,30.09,SSW,202,3.0,4.0,87,0.00,,,0.00,Rainwise IP-100,2013-06-22 11:52:00,
2013-06-22 07:57:00,68.0,63.5,30.11,SW,225,4.0,4.0,85,0.00,,,0.00,Rainwise IP-100,2013-06-22 11:57:00,
2013-06-22 08:02:00,69.0,62.5,30.11,SW,225,3.0,6.0,80,0.00,,,0.00,Rainwise IP-100,2013-06-22 12:02:00,
2013-06-22 08:07:00,69.0,61.5,30.11,SSW,202,4.0,6.0,77,0.00,,,0.00,Rainwise IP-100,2013-06-22 12:07:00,
2013-06-22 08:12:00,70.0,63.0,30.11,South,180,0.0,4.0,78,0.00,,,0.00,Rainwise IP-100,2013-06-22 12:12:00,
2013-06-22 08:17:00,71.0,62.0,30.11,South,180,1.0,4.0,74,0.00,,,0.00,Rainwise IP-100,2013-06-22 12:17:00,
2013-06-22 08:22:00,71.0,61.5,30.11,SSW,202,1.0,5.0,72,0.00,,,0.00,Rainwise IP-100,2013-06-22 12:22:00,
2013-06-22 08:27:00,72.0,62.0,30.11,WSW,247,1.0,6.0,71,0.00,,,0.00,Rainwise IP-100,2013-06-22 12:27:00,
2013-06-22 08:32:00,73.0,62.0,30.11,SSW,202,2.0,6.0,68,0.00,,,0.00,Rainwise IP-100,2013-06-22 12:32:00,
2013-06-22 08:37:00,73.0,62.0,30.11,South,180,2.0,6.0,68,0.00,,,0.00,Rainwise IP-100,2013-06-22 12:37:00,
2013-06-22 08:42:00,73.0,61.0,30.12,SW,225,2.0,5.0,66,0.00,,,0.00,Rainwise IP-100,2013-06-22 12:42:00,
2013-06-22 08:47:00,74.0,62.0,30.12,SW,225,1.0,4.0,66,0.00,,,0.00,Rainwise IP-100,2013-06-22 12:47:00,
2013-06-22 08:52:00,74.0,62.5,30.12,SW,225,3.0,6.0,67,0.00,,,0.00,Rainwise IP-100,2013-06-22 12:52:00,
2013-06-22 08:57:00,74.0,62.0,30.12,South,180,4.0,5.0,66,0.00,,,0.00,Rainwise IP-100,2013-06-22 12:57:00,
2013-06-22 09:02:00,75.0,62.5,30.12,SSW,202,4.0,5.0,65,0.00,,,0.00,Rainwise IP-100,2013-06-22 13:02:00,
2013-06-22 09:07:00,75.0,61.5,30.12,SSW,202,2.0,5.0,63,0.00,,,0.00,Rainwise IP-100,2013-06-22 13:07:00,
2013-06-22 09:12:00,75.0,62.0,30.12,South,180,2.0,6.0,64,0.00,,,0.00,Rainwise IP-100,2013-06-22 13:12:00,
2013-06-22 09:17:00,75.0,61.5,30.12,SSW,202,4.0,6.0,63,0.00,,,0.00,Rainwise IP-100,2013-06-22 13:17:00,
2013-06-22 09:22:00,75.0,61.5,30.12,SW,225,2.0,8.0,63,0.00,,,0.00,Rainwise IP-100,2013-06-22 13:22:00,
2013-06-22 09:27:00,75.0,61.5,30.12,West,270,1.0,5.0,63,0.00,,,0.00,Rainwise IP-100,2013-06-22 13:27:00,
2013-06-22 09:32:00,75.0,61.0,30.12,SSW,202,2.0,6.0,61,0.00,,,0.00,Rainwise IP-100,2013-06-22 13:32:00,
2013-06-22 09:37:00,76.0,61.0,30.12,SW,225,3.0,6.0,60,0.00,,,0.00,Rainwise IP-100,2013-06-22 13:37:00,
2013-06-22 09:42:00,76.0,61.5,30.12,South,180,2.0,6.0,61,0.00,,,0.00,Rainwise IP-100,2013-06-22 13:42:00,
2013-06-22 09:47:00,76.0,61.5,30.12,South,180,1.0,6.0,61,0.00,,,0.00,Rainwise IP-100,2013-06-22 13:47:00,
2013-06-22 09:52:00,76.0,61.5,30.12,SSW,202,4.0,6.0,61,0.00,,,0.00,Rainwise IP-100,2013-06-22 13:52:00,
2013-06-22 09:57:00,76.0,61.0,30.12,SW,225,1.0,7.0,60,0.00,,,0.00,Rainwise IP-100,2013-06-22 13:57:00,
2013-06-22 10:02:00,76.0,61.5,30.12,South,180,3.0,6.0,61,0.00,,,0.00,Rainwise IP-100,2013-06-22 14:02:00,
2013-06-22 10:07:00,76.0,61.5,30.12,SSW,202,6.0,6.0,61,0.00,,,0.00,Rainwise IP-100,2013-06-22 14:07:00,
2013-06-22 10:12:00,76.0,61.5,30.13,South,180,3.0,6.0,61,0.00,,,0.00,Rainwise IP-100,2013-06-22 14:12:00,
2013-06-22 10:17:00,77.0,56.0,30.13,SSW,202,5.0,8.0,48,0.00,,,0.00,Rainwise IP-100,2013-06-22 14:17:00,
2013-06-22 10:22:00,77.0,58.0,30.13,West,270,0.0,7.0,52,0.00,,,0.00,Rainwise IP-100,2013-06-22 14:22:00,
2013-06-22 10:27:00,77.0,58.0,30.13,West,270,2.0,4.0,52,0.00,,,0.00,Rainwise IP-100,2013-06-22 14:27:00,
2013-06-22 10:32:00,77.0,58.0,30.13,South,180,4.0,6.0,52,0.00,,,0.00,Rainwise IP-100,2013-06-22 14:32:00,
2013-06-22 10:37:00,78.0,58.0,30.13,South,180,2.0,7.0,50,0.00,,,0.00,Rainwise IP-100,2013-06-22 14:37:00,
2013-06-22 10:42:00,77.0,59.0,30.13,South,180,4.0,5.0,53,0.00,,,0.00,Rainwise IP-100,2013-06-22 14:42:00,
2013-06-22 10:47:00,78.0,60.0,30.13,SW,225,5.0,5.0,54,0.00,,,0.00,Rainwise IP-100,2013-06-22 14:47:00,
2013-06-22 10:52:00,78.0,60.0,30.14,West,270,3.0,6.0,54,0.00,,,0.00,Rainwise IP-100,2013-06-22 14:52:00,
2013-06-22 10:57:00,78.0,60.0,30.14,South,180,3.0,6.0,54,0.00,,,0.00,Rainwise IP-100,2013-06-22 14:57:00,
2013-06-22 11:02:00,78.0,59.5,30.14,WSW,247,1.0,6.0,53,0.00,,,0.00,Rainwise IP-100,2013-06-22 15:02:00,
2013-06-22 11:07:00,78.0,58.0,30.14,NE,45,0.0,4.0,50,0.00,,,0.00,Rainwise IP-100,2013-06-22 15:07:00,
2013-06-22 11:12:00,79.0,57.5,30.14,South,180,2.0,5.0,48,0.00,,,0.00,Rainwise IP-100,2013-06-22 15:12:00,
2013-06-22 11:17:00,79.0,57.0,30.14,South,180,6.0,7.0,47,0.00,,,0.00,Rainwise IP-100,2013-06-22 15:17:00,
2013-06-22 11:22:00,79.0,57.0,30.14,South,180,0.0,6.0,47,0.00,,,0.00,Rainwise IP-100,2013-06-22 15:22:00,
2013-06-22 11:27:00,79.0,59.0,30.14,NE,45,4.0,5.0,50,0.00,,,0.00,Rainwise IP-100,2013-06-22 15:27:00,
2013-06-22 11:32:00,79.0,56.5,30.14,NE,45,1.0,5.0,46,0.00,,,0.00,Rainwise IP-100,2013-06-22 15:32:00,
2013-06-22 11:37:00,80.0,57.0,30.14,South,180,3.0,5.0,46,0.00,,,0.00,Rainwise IP-100,2013-06-22 15:37:00,
2013-06-22 11:42:00,79.0,56.0,30.14,North,360,5.0,7.0,45,0.00,,,0.00,Rainwise IP-100,2013-06-22 15:42:00,
2013-06-22 11:47:00,80.0,57.5,30.14,SSW,202,2.0,6.0,47,0.00,,,0.00,Rainwise IP-100,2013-06-22 15:47:00,
2013-06-22 11:52:00,80.0,58.0,30.14,NW,315,0.0,5.0,48,0.00,,,0.00,Rainwise IP-100,2013-06-22 15:52:00,
2013-06-22 11:57:00,80.0,59.0,30.14,South,180,0.0,5.0,49,0.00,,,0.00,Rainwise IP-100,2013-06-22 15:57:00,
2013-06-22 12:02:00,80.0,57.0,30.14,SW,225,5.0,5.0,46,0.00,,,0.00,Rainwise IP-100,2013-06-22 16:02:00,
2013-06-22 12:07:00,81.0,56.5,30.14,North,360,0.0,7.0,43,0.00,,,0.00,Rainwise IP-100,2013-06-22 16:07:00,
2013-06-22 12:12:00,81.0,57.0,30.14,North,360,0.0,6.0,44,0.00,,,0.00,Rainwise IP-100,2013-06-22 16:12:00,
2013-06-22 12:17:00,81.0,57.0,30.14,North,360,0.0,5.0,44,0.00,,,0.00,Rainwise IP-100,2013-06-22 16:17:00,
2013-06-22 12:22:00,82.0,59.0,30.13,NNW,337,5.0,6.0,45,0.00,,,0.00,Rainwise IP-100,2013-06-22 16:22:00,
2013-06-22 12:27:00,82.0,59.0,30.13,WSW,247,3.0,7.0,45,0.00,,,0.00,Rainwise IP-100,2013-06-22 16:27:00,
2013-06-22 12:32:00,82.0,57.5,30.13,SSE,157,1.0,6.0,44,0.00,,,0.00,Rainwise IP-100,2013-06-22 16:32:00,
2013-06-22 12:37:00,82.0,57.0,30.13,South,180,1.0,6.0,43,0.00,,,0.00,Rainwise IP-100,2013-06-22 16:37:00,
2013-06-22 12:42:00,82.0,56.5,30.13,WSW,247,2.0,5.0,42,0.00,,,0.00,Rainwise IP-100,2013-06-22 16:42:00,
2013-06-22 12:47:00,82.0,59.0,30.13,North,360,0.0,7.0,45,0.00,,,0.00,Rainwise IP-100,2013-06-22 16:47:00,
2013-06-22 12:52:00,82.0,57.5,30.13,NE,45,3.0,3.0,44,0.00,,,0.00,Rainwise IP-100,2013-06-22 16:52:00,
2013-06-22 12:57:00,83.0,59.0,30.13,South,180,3.0,5.0,44,0.00,,,0.00,Rainwise IP-100,2013-06-22 16:57:00,
2013-06-22 13:02:00,83.0,62.5,30.13,SSW,202,5.0,6.0,50,0.00,,,0.00,Rainwise IP-100,2013-06-22 17:02:00,
2013-06-22 13:07:00,83.0,61.0,30.13,WSW,247,3.0,7.0,47,0.00,,,0.00,Rainwise IP-100,2013-06-22 17:07:00,
2013-06-22 13:12:00,82.0,60.5,30.12,SW,225,2.0,6.0,48,0.00,,,0.00,Rainwise IP-100,2013-06-22 17:12:00,
2013-06-22 13:17:00,82.0,61.5,30.12,NW,315,0.0,6.0,50,0.00,,,0.00,Rainwise IP-100,2013-06-22 17:17:00,
2013-06-22 13:22:00,82.0,60.5,30.11,West,270,3.0,6.0,48,0.00,,,0.00,Rainwise IP-100,2013-06-22 17:22:00,
2013-06-22 13:27:00,82.0,61.0,30.11,South,180,2.0,7.0,49,0.00,,,0.00,Rainwise IP-100,2013-06-22 17:27:00,
2013-06-22 13:32:00,82.0,60.0,30.11,SW,225,6.0,7.0,47,0.00,,,0.00,Rainwise IP-100,2013-06-22 17:32:00,
2013-06-22 13:37:00,81.0,60.0,30.11,SW,225,6.0,6.0,49,0.00,,,0.00,Rainwise IP-100,2013-06-22 17:37:00,
2013-06-22 13:42:00,81.0,59.0,30.11,West,270,5.0,7.0,47,0.00,,,0.00,Rainwise IP-100,2013-06-22 17:42:00,
2013-06-22 13:47:00,81.0,59.5,30.11,South,180,0.0,7.0,48,0.00,,,0.00,Rainwise IP-100,2013-06-22 17:47:00,
2013-06-22 13:52:00,81.0,58.0,30.11,SW,225,4.0,7.0,46,0.00,,,0.00,Rainwise IP-100,2013-06-22 17:52:00,
2013-06-22 13:57:00,81.0,58.0,30.11,South,180,5.0,6.0,46,0.00,,,0.00,Rainwise IP-100,2013-06-22 17:57:00,
2013-06-22 14:02:00,81.0,57.0,30.11,South,180,5.0,7.0,44,0.00,,,0.00,Rainwise IP-100,2013-06-22 18:02:00,
2013-06-22 14:07:00,81.0,59.0,30.11,South,180,3.0,7.0,47,0.00,,,0.00,Rainwise IP-100,2013-06-22 18:07:00,
2013-06-22 14:12:00,81.0,59.0,30.11,SSE,157,6.0,9.0,47,0.00,,,0.00,Rainwise IP-100,2013-06-22 18:12:00,
2013-06-22 14:17:00,81.0,58.0,30.11,WSW,247,4.0,7.0,46,0.00,,,0.00,Rainwise IP-100,2013-06-22 18:17:00,
2013-06-22 14:22:00,81.0,59.5,30.11,WSW,247,6.0,7.0,48,0.00,,,0.00,Rainwise IP-100,2013-06-22 18:22:00,
2013-06-22 14:27:00,81.0,59.0,30.11,SW,225,4.0,7.0,47,0.00,,,0.00,Rainwise IP-100,2013-06-22 18:27:00,
2013-06-22 14:32:00,81.0,60.0,30.11,WSW,247,3.0,8.0,49,0.00,,,0.00,Rainwise IP-100,2013-06-22 18:32:00,
2013-06-22 14:37:00,81.0,59.0,30.11,South,180,4.0,6.0,47,0.00,,,0.00,Rainwise IP-100,2013-06-22 18:37:00,
2013-06-22 14:42:00,81.0,59.0,30.11,WSW,247,2.0,7.0,47,0.00,,,0.00,Rainwise IP-100,2013-06-22 18:42:00,
2013-06-22 14:47:00,81.0,58.0,30.11,SW,225,5.0,6.0,46,0.00,,,0.00,Rainwise IP-100,2013-06-22 18:47:00,
2013-06-22 14:52:00,81.0,57.0,30.11,SE,135,10.0,10.0,44,0.00,,,0.00,Rainwise IP-100,2013-06-22 18:52:00,
2013-06-22 14:57:00,81.0,58.0,30.11,WSW,247,5.0,12.0,46,0.00,,,0.00,Rainwise IP-100,2013-06-22 18:57:00,
2013-06-22 15:02:00,81.0,56.5,30.11,South,180,5.0,6.0,43,0.00,,,0.00,Rainwise IP-100,2013-06-22 19:02:00,
2013-06-22 15:07:00,81.0,56.0,30.11,South,180,6.0,9.0,42,0.00,,,0.00,Rainwise IP-100,2013-06-22 19:07:00,
2013-06-22 15:12:00,81.0,56.0,30.11,South,180,3.0,9.0,42,0.00,,,0.00,Rainwise IP-100,2013-06-22 19:12:00,
2013-06-22 15:17:00,82.0,55.0,30.11,South,180,4.0,7.0,40,0.00,,,0.00,Rainwise IP-100,2013-06-22 19:17:00,
2013-06-22 15:22:00,81.0,53.5,30.11,SW,225,2.0,7.0,38,0.00,,,0.00,Rainwise IP-100,2013-06-22 19:22:00,
2013-06-22 15:27:00,81.0,53.5,30.10,SSW,202,2.0,11.0,38,0.00,,,0.00,Rainwise IP-100,2013-06-22 19:27:00,
2013-06-22 15:32:00,80.0,53.5,30.10,WSW,247,2.0,7.0,40,0.00,,,0.00,Rainwise IP-100,2013-06-22 19:32:00,
2013-06-22 15:37:00,80.0,55.0,30.10,South,180,0.0,6.0,43,0.00,,,0.00,Rainwise IP-100,2013-06-22 19:37:00,
2013-06-22 15:42:00,80.0,54.5,30.09,SW,225,3.0,8.0,42,0.00,,,0.00,Rainwise IP-100,2013-06-22 19:42:00,
2013-06-22 15:47:00,80.0,55.0,30.09,SW,225,4.0,7.0,43,0.00,,,0.00,Rainwise IP-100,2013-06-22 19:47:00,
2013-06-22 15:52:00,80.0,54.5,30.08,SW,225,7.0,8.0,42,0.00,,,0.00,Rainwise IP-100,2013-06-22 19:52:00,
2013-06-22 15:57:00,79.0,56.0,30.08,South,180,5.0,8.0,45,0.00,,,0.00,Rainwise IP-100,2013-06-22 19:57:00,
2013-06-22 16:02:00,79.0,56.0,30.08,SW,225,5.0,8.0,45,0.00,,,0.00,Rainwise IP-100,2013-06-22 20:02:00,
2013-06-22 16:07:00,79.0,56.5,30.07,South,180,5.0,7.0,46,0.00,,,0.00,Rainwise IP-100,2013-06-22 20:07:00,
2013-06-22 16:12:00,79.0,56.5,30.07,South,180,3.0,9.0,46,0.00,,,0.00,Rainwise IP-100,2013-06-22 20:12:00,
2013-06-22 16:17:00,79.0,56.5,30.07,South,180,4.0,7.0,46,0.00,,,0.00,Rainwise IP-100,2013-06-22 20:17:00,
2013-06-22 16:22:00,79.0,55.0,30.06,WSW,247,6.0,7.0,44,0.00,,,0.00,Rainwise IP-100,2013-06-22 20:22:00,
2013-06-22 16:27:00,79.0,55.0,30.06,WSW,247,4.0,8.0,44,0.00,,,0.00,Rainwise IP-100,2013-06-22 20:27:00,
2013-06-22 16:32:00,78.0,56.0,30.06,WSW,247,3.0,9.0,46,0.00,,,0.00,Rainwise IP-100,2013-06-22 20:32:00,
2013-06-22 16:37:00,78.0,55.0,30.06,SSE,157,2.0,7.0,45,0.00,,,0.00,Rainwise IP-100,2013-06-22 20:37:00,
2013-06-22 16:42:00,78.0,55.0,30.06,South,180,5.0,10.0,45,0.00,,,0.00,Rainwise IP-100,2013-06-22 20:42:00,
2013-06-22 16:47:00,78.0,55.0,30.06,SW,225,3.0,7.0,45,0.00,,,0.00,Rainwise IP-100,2013-06-22 20:47:00,
2013-06-22 16:52:00,77.0,55.0,30.06,SW,225,4.0,9.0,47,0.00,,,0.00,Rainwise IP-100,2013-06-22 20:52:00,
2013-06-22 16:57:00,77.0,55.0,30.05,SW,225,4.0,8.0,47,0.00,,,0.00,Rainwise IP-100,2013-06-22 20:57:00,
2013-06-22 17:02:00,77.0,56.5,30.05,SW,225,4.0,9.0,49,0.00,,,0.00,Rainwise IP-100,2013-06-22 21:02:00,
2013-06-22 17:07:00,77.0,56.5,30.05,South,180,4.0,7.0,49,0.00,,,0.00,Rainwise IP-100,2013-06-22 21:07:00,
2013-06-22 17:12:00,77.0,57.0,30.05,SSE,157,2.0,6.0,50,0.00,,,0.00,Rainwise IP-100,2013-06-22 21:12:00,
2013-06-22 17:17:00,76.0,56.0,30.05,SW,225,3.0,7.0,50,0.00,,,0.00,Rainwise IP-100,2013-06-22 21:17:00,
2013-06-22 17:22:00,76.0,56.5,30.05,WSW,247,2.0,10.0,51,0.00,,,0.00,Rainwise IP-100,2013-06-22 21:22:00,
2013-06-22 17:27:00,76.0,56.5,30.05,West,270,3.0,7.0,51,0.00,,,0.00,Rainwise IP-100,2013-06-22 21:27:00,
2013-06-22 17:32:00,76.0,57.0,30.05,WSW,247,2.0,7.0,52,0.00,,,0.00,Rainwise IP-100,2013-06-22 21:32:00,
2013-06-22 17:38:00,76.0,59.0,30.04,WSW,247,5.0,6.0,55,0.00,,,0.00,Rainwise IP-100,2013-06-22 21:38:00,
2013-06-22 17:43:00,75.0,59.0,30.04,SSW,202,2.0,6.0,57,0.00,,,0.00,Rainwise IP-100,2013-06-22 21:43:00,
2013-06-22 17:48:00,75.0,60.0,30.04,South,180,2.0,6.0,59,0.00,,,0.00,Rainwise IP-100,2013-06-22 21:48:00,
2013-06-22 17:53:00,75.0,59.5,30.04,WSW,247,4.0,7.0,58,0.00,,,0.00,Rainwise IP-100,2013-06-22 21:53:00,
2013-06-22 17:58:00,75.0,58.0,30.04,SW,225,5.0,6.0,56,0.00,,,0.00,Rainwise IP-100,2013-06-22 21:58:00,
2013-06-22 18:03:00,74.0,57.5,30.04,North,360,0.0,6.0,56,0.00,,,0.00,Rainwise IP-100,2013-06-22 22:03:00,
2013-06-22 18:08:00,74.0,57.5,30.04,WSW,247,1.0,6.0,56,0.00,,,0.00,Rainwise IP-100,2013-06-22 22:08:00,
2013-06-22 18:13:00,74.0,58.0,30.04,SSW,202,4.0,7.0,58,0.00,,,0.00,Rainwise IP-100,2013-06-22 22:13:00,
2013-06-22 18:18:00,74.0,59.0,30.04,WSW,247,2.0,6.0,59,0.00,,,0.00,Rainwise IP-100,2013-06-22 22:18:00,
2013-06-22 18:23:00,73.0,58.0,30.04,SW,225,2.0,6.0,60,0.00,,,0.00,Rainwise IP-100,2013-06-22 22:23:00,
2013-06-22 18:28:00,73.0,58.0,30.03,ESE,112,0.0,7.0,60,0.00,,,0.00,Rainwise IP-100,2013-06-22 22:28:00,
2013-06-22 18:33:00,73.0,57.5,30.03,WSW,247,5.0,10.0,58,0.00,,,0.00,Rainwise IP-100,2013-06-22 22:33:00,
2013-06-22 18:38:00,73.0,57.5,30.03,SSW,202,3.0,7.0,59,0.00,,,0.00,Rainwise IP-100,2013-06-22 22:38:00,
2013-06-22 18:43:00,72.0,57.5,30.03,WSW,247,2.0,10.0,61,0.00,,,0.00,Rainwise IP-100,2013-06-22 22:43:00,
2013-06-22 18:48:00,72.0,57.5,30.03,SW,225,6.0,6.0,61,0.00,,,0.00,Rainwise IP-100,2013-06-22 22:48:00,
2013-06-22 18:53:00,72.0,59.0,30.03,South,180,4.0,6.0,63,0.00,,,0.00,Rainwise IP-100,2013-06-22 22:53:00,
2013-06-22 18:58:00,71.0,58.0,30.03,WSW,247,4.0,6.0,65,0.00,,,0.00,Rainwise IP-100,2013-06-22 22:58:00,
2013-06-22 19:03:00,71.0,59.0,30.02,WSW,247,2.0,8.0,66,0.00,,,0.00,Rainwise IP-100,2013-06-22 23:03:00,
2013-06-22 19:08:00,71.0,59.0,30.02,WSW,247,4.0,6.0,66,0.00,,,0.00,Rainwise IP-100,2013-06-22 23:08:00,
2013-06-22 19:13:00,70.0,59.0,30.02,South,180,2.0,6.0,68,0.00,,,0.00,Rainwise IP-100,2013-06-22 23:13:00,
2013-06-22 19:18:00,70.0,60.0,30.02,ENE,67,2.0,6.0,70,0.00,,,0.00,Rainwise IP-100,2013-06-22 23:18:00,
2013-06-22 19:23:00,70.0,60.0,30.02,WSW,247,6.0,6.0,70,0.00,,,0.00,Rainwise IP-100,2013-06-22 23:23:00,
2013-06-22 19:28:00,70.0,60.5,30.02,SW,225,2.0,6.0,72,0.00,,,0.00,Rainwise IP-100,2013-06-22 23:28:00,
2013-06-22 19:33:00,70.0,61.0,30.01,SW,225,1.0,7.0,73,0.00,,,0.00,Rainwise IP-100,2013-06-22 23:33:00,
2013-06-22 19:38:00,70.0,61.0,30.01,WSW,247,3.0,6.0,73,0.00,,,0.00,Rainwise IP-100,2013-06-22 23:38:00,
2013-06-22 19:43:00,69.0,60.5,30.01,SW,225,1.0,5.0,74,0.00,,,0.00,Rainwise IP-100,2013-06-22 23:43:00,
2013-06-22 19:48:00,69.0,60.5,30.01,SSW,202,2.0,5.0,74,0.00,,,0.00,Rainwise IP-100,2013-06-22 23:48:00,
2013-06-22 19:53:00,69.0,60.5,30.01,SW,225,2.0,7.0,75,0.00,,,0.00,Rainwise IP-100,2013-06-22 23:53:00,
2013-06-22 19:58:00,69.0,60.0,30.01,SW,225,1.0,6.0,73,0.00,,,0.00,Rainwise IP-100,2013-06-22 23:58:00,
2013-06-22 20:03:00,69.0,60.5,30.01,SW,225,3.0,6.0,74,0.00,,,0.00,Rainwise IP-100,2013-06-23 00:03:00,
2013-06-22 20:08:00,69.0,60.5,30.01,SW,225,3.0,7.0,75,0.00,,,0.00,Rainwise IP-100,2013-06-23 00:08:00,
2013-06-22 20:13:00,68.0,60.0,30.02,SW,225,0.0,5.0,75,0.00,,,0.00,Rainwise IP-100,2013-06-23 00:13:00,
2013-06-22 20:18:00,68.0,60.0,30.02,SW,225,3.0,5.0,76,0.00,,,0.00,Rainwise IP-100,2013-06-23 00:18:00,
2013-06-22 20:23:00,68.0,60.5,30.02,SW,225,1.0,5.0,77,0.00,,,0.00,Rainwise IP-100,2013-06-23 00:23:00,
2013-06-22 20:28:00,68.0,61.0,30.02,SW,225,4.0,6.0,78,0.00,,,0.00,Rainwise IP-100,2013-06-23 00:28:00,
2013-06-22 20:33:00,68.0,61.5,30.01,SW,225,2.0,6.0,80,0.00,,,0.00,Rainwise IP-100,2013-06-23 00:33:00,
2013-06-22 20:38:00,68.0,62.0,30.01,SW,225,2.0,6.0,81,0.00,,,0.00,Rainwise IP-100,2013-06-23 00:38:00,
2013-06-22 20:43:00,67.0,62.0,30.01,SW,225,3.0,5.0,83,0.00,,,0.00,Rainwise IP-100,2013-06-23 00:43:00,
2013-06-22 20:48:00,67.0,62.0,30.01,SSW,202,3.0,6.0,83,0.00,,,0.00,Rainwise IP-100,2013-06-23 00:48:00,
2013-06-22 20:53:00,67.0,62.5,30.01,South,180,1.0,6.0,85,0.00,,,0.00,Rainwise IP-100,2013-06-23 00:53:00,
2013-06-22 20:58:00,67.0,62.5,30.01,SW,225,3.0,5.0,85,0.00,,,0.00,Rainwise IP-100,2013-06-23 00:58:00,
2013-06-22 21:03:00,67.0,63.0,30.01,SW,225,3.0,4.0,86,0.00,,,0.00,Rainwise IP-100,2013-06-23 01:03:00,
2013-06-22 21:08:00,67.0,63.0,30.01,SSW,202,2.0,6.0,86,0.00,,,0.00,Rainwise IP-100,2013-06-23 01:08:00,
2013-06-22 21:13:00,67.0,62.5,30.01,SW,225,3.0,4.0,85,0.00,,,0.00,Rainwise IP-100,2013-06-23 01:13:00,
2013-06-22 21:18:00,67.0,63.0,30.02,SW,225,4.0,6.0,86,0.00,,,0.00,Rainwise IP-100,2013-06-23 01:18:00,
2013-06-22 21:23:00,66.0,61.5,30.02,SW,225,3.0,5.0,86,0.00,,,0.00,Rainwise IP-100,2013-06-23 01:23:00,
2013-06-22 21:28:00,66.0,61.5,30.02,South,180,3.0,5.0,86,0.00,,,0.00,Rainwise IP-100,2013-06-23 01:28:00,
2013-06-22 21:33:00,66.0,62.0,30.03,WSW,247,2.0,4.0,87,0.00,,,0.00,Rainwise IP-100,2013-06-23 01:33:00,
2013-06-22 21:38:00,66.0,62.0,30.03,SSW,202,3.0,7.0,87,0.00,,,0.00,Rainwise IP-100,2013-06-23 01:38:00,
2013-06-22 21:43:00,66.0,62.0,30.03,SW,225,0.0,3.0,88,0.00,,,0.00,Rainwise IP-100,2013-06-23 01:43:00,
2013-06-22 21:48:00,66.0,62.0,30.03,South,180,2.0,4.0,88,0.00,,,0.00,Rainwise IP-100,2013-06-23 01:48:00,
2013-06-22 21:53:00,66.0,62.0,30.03,SSW,202,2.0,4.0,88,0.00,,,0.00,Rainwise IP-100,2013-06-23 01:53:00,
2013-06-22 21:58:00,66.0,62.5,30.03,SW,225,0.0,3.0,89,0.00,,,0.00,Rainwise IP-100,2013-06-23 01:58:00,
2013-06-22 22:03:00,66.0,63.0,30.03,WSW,247,4.0,4.0,90,0.00,,,0.00,Rainwise IP-100,2013-06-23 02:03:00,
2013-06-22 22:08:00,66.0,63.0,30.03,SSW,202,1.0,6.0,90,0.00,,,0.00,Rainwise IP-100,2013-06-23 02:08:00,
2013-06-22 22:13:00,66.0,63.0,30.03,SW,225,2.0,3.0,90,0.00,,,0.00,Rainwise IP-100,2013-06-23 02:13:00,
2013-06-22 22:18:00,66.0,63.0,30.03,SW,225,0.0,4.0,90,0.00,,,0.00,Rainwise IP-100,2013-06-23 02:18:00,
2013-06-22 22:23:00,66.0,63.0,30.03,SW,225,2.0,4.0,90,0.00,,,0.00,Rainwise IP-100,2013-06-23 02:23:00,
2013-06-22 22:28:00,66.0,63.0,30.03,SSW,202,3.0,4.0,90,0.00,,,0.00,Rainwise IP-100,2013-06-23 02:28:00,
2013-06-22 22:33:00,66.0,63.0,30.03,South,180,1.0,4.0,90,0.00,,,0.00,Rainwise IP-100,2013-06-23 02:33:00,
2013-06-22 22:38:00,65.0,62.0,30.03,South,180,2.0,4.0,90,0.00,,,0.00,Rainwise IP-100,2013-06-23 02:38:00,
2013-06-22 22:43:00,65.0,62.0,30.04,SW,225,1.0,4.0,90,0.00,,,0.00,Rainwise IP-100,2013-06-23 02:43:00,
2013-06-22 22:48:00,65.0,62.0,30.04,South,180,2.0,4.0,90,0.00,,,0.00,Rainwise IP-100,2013-06-23 02:48:00,
2013-06-22 22:53:00,65.0,62.0,30.04,SSW,202,1.0,4.0,90,0.00,,,0.00,Rainwise IP-100,2013-06-23 02:53:00,
2013-06-22 22:58:00,65.0,62.0,30.04,South,180,1.0,4.0,91,0.00,,,0.00,Rainwise IP-100,2013-06-23 02:58:00,
2013-06-22 23:03:00,65.0,62.0,30.04,WSW,247,3.0,4.0,91,0.00,,,0.00,Rainwise IP-100,2013-06-23 03:03:00,
2013-06-22 23:08:00,65.0,62.0,30.03,SW,225,4.0,5.0,91,0.00,,,0.00,Rainwise IP-100,2013-06-23 03:08:00,
2013-06-22 23:13:00,65.0,62.0,30.03,SSW,202,3.0,5.0,91,0.00,,,0.00,Rainwise IP-100,2013-06-23 03:13:00,
2013-06-22 23:18:00,65.0,62.0,30.03,SSW,202,3.0,7.0,91,0.00,,,0.00,Rainwise IP-100,2013-06-23 03:18:00,
2013-06-22 23:23:00,65.0,62.0,30.03,South,180,3.0,4.0,91,0.00,,,0.00,Rainwise IP-100,2013-06-23 03:23:00,
2013-06-22 23:28:00,65.0,62.0,30.03,South,180,4.0,5.0,91,0.00,,,0.00,Rainwise IP-100,2013-06-23 03:28:00,
2013-06-22 23:33:00,65.0,62.5,30.03,SSW,202,0.0,5.0,92,0.00,,,0.00,Rainwise IP-100,2013-06-23 03:33:00,
2013-06-22 23:38:00,65.0,62.5,30.03,South,180,4.0,5.0,92,0.00,,,0.00,Rainwise IP-100,2013-06-23 03:38:00,
2013-06-22 23:43:00,65.0,62.5,30.03,South,180,0.0,4.0,92,0.00,,,0.00,Rainwise IP-100,2013-06-23 03:43:00,
2013-06-22 23:48:00,65.0,62.5,30.03,SSW,202,2.0,4.0,92,0.00,,,0.00,Rainwise IP-100,2013-06-23 03:48:00,
2013-06-22 23:53:00,65.0,62.5,30.03,SW,225,2.0,5.0,92,0.00,,,0.00,Rainwise IP-100,2013-06-23 03:53:00,
2013-06-22 23:58:00,65.0,62.5,30.03,South,180,0.0,3.0,92,0.00,,,0.00,Rainwise IP-100,2013-06-23 03:58:00,